Météo par heure à Kyzyl Oktyabr

Ce jour, 24 Juillet, Samedi

Heure Température Précipitation Vent Pression Humidité
00:00 +16°C° 0 mm 1 m/s 745 mmHg 66%
01:00 +15°C° 0 mm 0 m/s 745 mmHg 66%
02:00 +15°C° 0 mm 0 m/s 746 mmHg 67%
03:00 +16°C° 0 mm 1 m/s 746 mmHg 67%
04:00 +16°C° 0 mm 1 m/s 746 mmHg 67%
05:00 +18°C° 0 mm 1 m/s 746 mmHg 65%
06:00 +19°C° 0 mm 1 m/s 746 mmHg 62%
07:00 +20°C° 0 mm 1 m/s 746 mmHg 60%
08:00 +21°C° 0 mm 1 m/s 746 mmHg 55%
09:00 +23°C° 0 mm 2 m/s 746 mmHg 49%
10:00 +24°C° 0 mm 2 m/s 746 mmHg 44%
11:00 +25°C° 0 mm 3 m/s 746 mmHg 42%
12:00 +25°C° 0 mm 3 m/s 746 mmHg 40%
13:00 +26°C° 0 mm 4 m/s 746 mmHg 37%
14:00 +25°C° 0 mm 4 m/s 746 mmHg 42%
15:00 +23°C° 0 mm 4 m/s 747 mmHg 46%
16:00 +23°C° 0 mm 4 m/s 747 mmHg 50%
17:00 +21°C° 0.4 mm 4 m/s 747 mmHg 59%
18:00 +20°C° 0.4 mm 4 m/s 748 mmHg 68%
19:00 +19°C° 0.4 mm 3 m/s 748 mmHg 77%
20:00 +17°C° 0.2 mm 3 m/s 749 mmHg 82%
21:00 +16°C° 0.2 mm 3 m/s 749 mmHg 87%
22:00 +13°C° 0.2 mm 3 m/s 750 mmHg 92%
23:00 +13°C° 0 mm 3 m/s 750 mmHg 92%

Demain, 25 Juillet, Dimanche

Heure Température Précipitation Vent Pression Humidité
00:00 +12°C° 0 mm 3 m/s 751 mmHg 92%
01:00 +11°C° 0 mm 3 m/s 751 mmHg 92%
02:00 +12°C° 0 mm 2 m/s 752 mmHg 92%
03:00 +10°C° 0 mm 2 m/s 752 mmHg 92%
04:00 +10°C° 0 mm 2 m/s 753 mmHg 92%
05:00 +11°C° 0 mm 3 m/s 753 mmHg 88%
06:00 +12°C° 0 mm 3 m/s 754 mmHg 84%
07:00 +13°C° 0 mm 3 m/s 754 mmHg 80%
08:00 +16°C° 0 mm 3 m/s 755 mmHg 67%
09:00 +17°C° 0 mm 3 m/s 755 mmHg 54%
10:00 +19°C° 0 mm 3 m/s 755 mmHg 41%
11:00 +20°C° 0 mm 4 m/s 755 mmHg 37%
12:00 +21°C° 0 mm 4 m/s 756 mmHg 34%
13:00 +22°C° 0 mm 5 m/s 756 mmHg 30%
14:00 +22°C° 0 mm 5 m/s 756 mmHg 30%
15:00 +22°C° 0 mm 5 m/s 756 mmHg 30%
16:00 +22°C° 0 mm 5 m/s 756 mmHg 30%
17:00 +21°C° 0 mm 4 m/s 756 mmHg 34%
18:00 +20°C° 0 mm 4 m/s 757 mmHg 38%
19:00 +19°C° 0 mm 4 m/s 757 mmHg 42%
20:00 +18°C° 0 mm 3 m/s 757 mmHg 46%
21:00 +16°C° 0 mm 3 m/s 758 mmHg 50%
22:00 +15°C° 0 mm 2 m/s 758 mmHg 54%
23:00 +14°C° 0 mm 1 m/s 758 mmHg 58%

Après-demain, 26 Juillet, Lundi

Heure Température Précipitation Vent Pression Humidité
00:00 +12°C° 0 mm 1 m/s 758 mmHg 62%
01:00 +10°C° 0 mm 0 m/s 759 mmHg 65%
02:00 +12°C° 0 mm 1 m/s 759 mmHg 62%
03:00 +13°C° 0 mm 1 m/s 759 mmHg 58%
04:00 +14°C° 0 mm 2 m/s 759 mmHg 54%
05:00 +15°C° 0 mm 2 m/s 759 mmHg 53%
06:00 +15°C° 0 mm 2 m/s 759 mmHg 52%
07:00 +16°C° 0 mm 2 m/s 759 mmHg 50%
08:00 +17°C° 0 mm 3 m/s 759 mmHg 48%
09:00 +19°C° 0 mm 3 m/s 759 mmHg 45%
10:00 +20°C° 0 mm 4 m/s 759 mmHg 42%
11:00 +20°C° 0 mm 4 m/s 759 mmHg 41%
12:00 +20°C° 0 mm 4 m/s 759 mmHg 40%
13:00 +21°C° 0 mm 5 m/s 759 mmHg 40%
14:00 +21°C° 0 mm 4 m/s 759 mmHg 39%
15:00 +22°C° 0 mm 4 m/s 758 mmHg 38%
16:00 +22°C° 0 mm 4 m/s 758 mmHg 38%
17:00 +21°C° 0 mm 3 m/s 758 mmHg 42%
18:00 +21°C° 0 mm 3 m/s 758 mmHg 46%
19:00 +20°C° 0 mm 3 m/s 757 mmHg 50%
20:00 +18°C° 0 mm 2 m/s 757 mmHg 55%
21:00 +16°C° 0 mm 2 m/s 757 mmHg 61%
22:00 +15°C° 0 mm 2 m/s 757 mmHg 67%
23:00 +15°C° 0 mm 2 m/s 757 mmHg 65%

27 Juillet, Mardi

Heure Température Précipitation Vent Pression Humidité
00:00 +15°C° 0 mm 2 m/s 757 mmHg 64%
01:00 +14°C° 0 mm 3 m/s 757 mmHg 62%
02:00 +13°C° 0 mm 3 m/s 757 mmHg 65%
03:00 +13°C° 0 mm 3 m/s 757 mmHg 68%
04:00 +12°C° 0 mm 3 m/s 756 mmHg 71%
05:00 +13°C° 0 mm 3 m/s 756 mmHg 67%
06:00 +16°C° 0 mm 3 m/s 756 mmHg 63%
07:00 +18°C° 0 mm 4 m/s 756 mmHg 59%
08:00 +20°C° 0 mm 5 m/s 756 mmHg 53%
09:00 +21°C° 0 mm 5 m/s 755 mmHg 48%
10:00 +23°C° 0 mm 6 m/s 755 mmHg 43%
11:00 +23°C° 0 mm 6 m/s 755 mmHg 43%
12:00 +24°C° 0 mm 7 m/s 754 mmHg 44%
13:00 +24°C° 0 mm 7 m/s 754 mmHg 44%
14:00 +26°C° 0 mm 7 m/s 754 mmHg 40%
15:00 +26°C° 0 mm 8 m/s 754 mmHg 36%
16:00 +26°C° 0 mm 8 m/s 753 mmHg 32%
17:00 +24°C° 0 mm 7 m/s 754 mmHg 36%
18:00 +23°C° 0 mm 6 m/s 754 mmHg 40%
19:00 +21°C° 0 mm 5 m/s 754 mmHg 44%
20:00 +19°C° 0 mm 4 m/s 754 mmHg 51%
21:00 +17°C° 0 mm 3 m/s 755 mmHg 59%
22:00 +14°C° 0 mm 2 m/s 755 mmHg 66%
23:00 +14°C° 0 mm 2 m/s 755 mmHg 69%

28 Juillet, Mercredi

Heure Température Précipitation Vent Pression Humidité
00:00 +13°C° 0 mm 2 m/s 755 mmHg 71%
01:00 +12°C° 0 mm 2 m/s 755 mmHg 74%
02:00 +12°C° 0 mm 1 m/s 755 mmHg 74%
03:00 +11°C° 0 mm 1 m/s 756 mmHg 75%
04:00 +11°C° 0 mm 1 m/s 756 mmHg 75%
05:00 +12°C° 0 mm 1 m/s 756 mmHg 68%
06:00 +14°C° 0 mm 1 m/s 756 mmHg 62%
07:00 +16°C° 0 mm 1 m/s 756 mmHg 55%
08:00 +18°C° 0 mm 1 m/s 756 mmHg 50%
09:00 +20°C° 0 mm 1 m/s 756 mmHg 44%
10:00 +22°C° 0 mm 1 m/s 755 mmHg 38%
11:00 +23°C° 0 mm 2 m/s 755 mmHg 36%
12:00 +24°C° 0 mm 2 m/s 755 mmHg 33%
13:00 +25°C° 0 mm 3 m/s 754 mmHg 31%
14:00 +26°C° 0 mm 3 m/s 754 mmHg 30%
15:00 +26°C° 0 mm 4 m/s 753 mmHg 29%
16:00 +27°C° 0 mm 4 m/s 753 mmHg 28%
17:00 +26°C° 0 mm 4 m/s 752 mmHg 33%
18:00 +25°C° 0 mm 3 m/s 752 mmHg 38%
19:00 +24°C° 0 mm 2 m/s 752 mmHg 43%
20:00 +21°C° 0 mm 2 m/s 752 mmHg 48%
21:00 +20°C° 0 mm 2 m/s 752 mmHg 54%
22:00 +18°C° 0 mm 3 m/s 751 mmHg 59%
23:00 +17°C° 0.1 mm 3 m/s 751 mmHg 64%

29 Juillet, Jeudi

Heure Température Précipitation Vent Pression Humidité
00:00 +17°C° 0.1 mm 3 m/s 751 mmHg 69%
01:00 +16°C° 0.1 mm 3 m/s 751 mmHg 74%
02:00 +16°C° 0 mm 3 m/s 751 mmHg 76%
03:00 +14°C° 0 mm 3 m/s 750 mmHg 79%
04:00 +14°C° 0 mm 3 m/s 750 mmHg 82%
05:00 +16°C° 0 mm 3 m/s 750 mmHg 79%
06:00 +18°C° 0 mm 3 m/s 750 mmHg 76%
07:00 +19°C° 0 mm 3 m/s 751 mmHg 73%
08:00 +21°C° 0 mm 3 m/s 751 mmHg 65%
09:00 +24°C° 0 mm 3 m/s 750 mmHg 57%
10:00 +26°C° 0 mm 4 m/s 750 mmHg 49%
11:00 +27°C° 0 mm 4 m/s 750 mmHg 45%
12:00 +29°C° 0 mm 4 m/s 750 mmHg 41%
13:00 +30°C° 0 mm 4 m/s 750 mmHg 37%
14:00 +30°C° 0 mm 4 m/s 750 mmHg 37%
15:00 +30°C° 0 mm 4 m/s 749 mmHg 36%
16:00 +30°C° 0 mm 4 m/s 749 mmHg 35%
17:00 +29°C° 0.1 mm 3 m/s 749 mmHg 42%
18:00 +27°C° 0.1 mm 2 m/s 749 mmHg 48%
19:00 +26°C° 0.1 mm 1 m/s 749 mmHg 54%
20:00 +24°C° 0.1 mm 1 m/s 749 mmHg 60%
21:00 +22°C° 0.1 mm 1 m/s 750 mmHg 66%
22:00 +21°C° 0.1 mm 1 m/s 750 mmHg 72%
23:00 +19°C° 0.1 mm 2 m/s 750 mmHg 76%
Voir plus

Nous avons besoin de votre consentement

Meteoprog et ses fournisseurs de services peuvent stocker et accéder à des données personnelles telles que des cookies, des identifiants d'appareils ou d'autres technologies similaires sur votre appareil et traiter ces données pour personnaliser le contenu et les publicités, ainsi que pour fournir des fonctionnalités de médias sociaux et analyser le trafic.

  • Stocker et/ou accéder à des informations sur votre appareil

    Des cookies, des identifiants d'appareils ou d'autres informations peuvent être stockés ou accessibles sur votre appareil aux fins indiquées ci-dessus.

  • Annonces et contenus personnalisés, mesure des annonces et des contenus, connaissance de l'audience et développement de produits

    Les annonces et le contenu peuvent être personnalisés en fonction d'un profil. D'autres données peuvent être ajoutées pour mieux personnaliser les annonces et le contenu. Les performances des publicités et du contenu peuvent être mesurées. Il est possible d'obtenir des informations sur le public qui a vu les publicités et le contenu. Ces données peuvent être utilisées pour développer ou améliorer l'expérience de l'utilisateur, les systèmes et les logiciels.

En cliquant sur "J'accepte", vous autorisez l'utilisation de cookies, des identifiants d'appareils, des balises web ou d'autres technologies similaires. Vos paramètres peuvent être modifiés dans le navigateur de votre appareil.

Dans certains cas, des intérêts légitimes peuvent être invoqués plutôt qu'un consentement. Vous pouvez en savoir plus à ce sujet dans notre Politique de confidentialité et de cookies.